Time,TemperatureF,DewpointF,PressureIn,WindDirection,WindDirectionDegrees,WindSpeedMPH,WindSpeedGustMPH,Humidity,HourlyPrecipIn,Conditions,Clouds,dailyrainin,SoftwareType,DateUTC
2013-02-16 00:09:00,27.4,19.0,29.95,SSW,198,1.0,2.0,70,0.00,,,0.00,weatherlink.com 1.10,2013-02-16 05:09:00,
2013-02-16 00:23:00,27.3,18.0,29.95,WNW,296,1.0,5.0,68,0.00,,,0.00,weatherlink.com 1.10,2013-02-16 05:23:00,
2013-02-16 00:38:00,27.1,18.0,29.96,WSW,253,2.0,6.0,69,0.00,,,0.00,weatherlink.com 1.10,2013-02-16 05:38:00,
2013-02-16 00:54:00,26.6,20.0,29.96,NW,307,0.0,4.0,75,0.00,,,0.00,weatherlink.com 1.10,2013-02-16 05:54:00,
2013-02-16 01:08:00,25.3,21.0,29.96,WSW,248,0.0,3.0,82,0.00,,,0.00,weatherlink.com 1.10,2013-02-16 06:08:00,
2013-02-16 01:24:00,24.7,21.0,29.96,WSW,250,0.0,3.0,86,0.00,,,0.00,weatherlink.com 1.10,2013-02-16 06:24:00,
2013-02-16 01:39:00,24.3,21.0,29.96,SW,217,0.0,1.0,88,0.00,,,0.00,weatherlink.com 1.10,2013-02-16 06:39:00,
2013-02-16 01:54:00,24.1,21.0,29.95,SW,216,0.0,0.0,88,0.00,,,0.00,weatherlink.com 1.10,2013-02-16 06:54:00,
2013-02-16 02:09:00,24.0,21.0,29.95,SSW,195,0.0,0.0,89,0.00,,,0.00,weatherlink.com 1.10,2013-02-16 07:09:00,
2013-02-16 02:24:00,23.8,21.0,29.95,NW,307,0.0,2.0,89,0.00,,,0.00,weatherlink.com 1.10,2013-02-16 07:24:00,
2013-02-16 02:39:00,23.7,21.0,29.94,NNW,345,0.0,1.0,89,0.00,,,0.00,weatherlink.com 1.10,2013-02-16 07:39:00,
2013-02-16 02:54:00,23.6,21.0,29.94,NNW,345,0.0,0.0,89,0.00,,,0.00,weatherlink.com 1.10,2013-02-16 07:54:00,
2013-02-16 03:09:00,23.6,21.0,29.94,NNW,344,0.0,0.0,89,0.00,,,0.00,weatherlink.com 1.10,2013-02-16 08:09:00,
2013-02-16 03:24:00,23.6,21.0,29.94,NNW,345,0.0,0.0,88,0.00,,,0.00,weatherlink.com 1.10,2013-02-16 08:24:00,
2013-02-16 03:39:00,23.7,21.0,29.93,NNW,345,0.0,0.0,89,0.00,,,0.00,weatherlink.com 1.10,2013-02-16 08:39:00,
2013-02-16 03:54:00,23.8,21.0,29.93,NNW,345,0.0,0.0,88,0.00,,,0.00,weatherlink.com 1.10,2013-02-16 08:54:00,
2013-02-16 04:09:00,23.5,21.0,29.93,NNW,345,0.0,0.0,88,0.00,,,0.00,weatherlink.com 1.10,2013-02-16 09:09:00,
2013-02-16 04:24:00,23.5,21.0,29.93,WNW,298,0.0,1.0,88,0.00,,,0.00,weatherlink.com 1.10,2013-02-16 09:24:00,
2013-02-16 04:39:00,23.6,19.0,29.93,West,281,0.0,3.0,81,0.00,,,0.00,weatherlink.com 1.10,2013-02-16 09:39:00,
2013-02-16 04:54:00,23.3,19.0,29.94,WNW,292,0.0,2.0,83,0.00,,,0.00,weatherlink.com 1.10,2013-02-16 09:54:00,
2013-02-16 05:09:00,22.8,19.0,29.94,NNE,15,0.0,2.0,84,0.00,,,0.00,weatherlink.com 1.10,2013-02-16 10:09:00,
2013-02-16 05:24:00,22.3,18.0,29.94,NE,39,0.0,1.0,83,0.00,,,0.00,weatherlink.com 1.10,2013-02-16 10:24:00,
2013-02-16 05:39:00,22.2,18.0,29.94,West,273,0.0,0.0,82,0.00,,,0.00,weatherlink.com 1.10,2013-02-16 10:39:00,
2013-02-16 05:54:00,21.9,17.0,29.94,NNW,330,0.0,1.0,80,0.00,,,0.00,weatherlink.com 1.10,2013-02-16 10:54:00,
2013-02-16 06:09:00,21.2,16.0,29.94,NW,315,0.0,1.0,80,0.00,,,0.00,weatherlink.com 1.10,2013-02-16 11:09:00,
2013-02-16 06:25:00,20.6,16.0,29.94,NW,315,0.0,1.0,81,0.00,,,0.00,weatherlink.com 1.10,2013-02-16 11:25:00,
2013-02-16 06:39:00,20.5,16.0,29.94,NW,315,0.0,1.0,81,0.00,,,0.00,weatherlink.com 1.10,2013-02-16 11:39:00,
2013-02-16 06:54:00,20.2,16.0,29.94,NW,314,0.0,0.0,82,0.00,,,0.00,weatherlink.com 1.10,2013-02-16 11:54:00,
2013-02-16 07:10:00,20.3,16.0,29.94,NW,315,0.0,0.0,82,0.00,,,0.00,weatherlink.com 1.10,2013-02-16 12:10:00,
2013-02-16 07:25:00,20.7,16.0,29.95,NW,315,0.0,0.0,81,0.00,,,0.00,weatherlink.com 1.10,2013-02-16 12:25:00,
2013-02-16 07:39:00,21.0,16.0,29.95,WNW,284,1.0,2.0,81,0.00,,,0.00,weatherlink.com 1.10,2013-02-16 12:39:00,
2013-02-16 07:54:00,20.6,16.0,29.95,NW,307,1.0,3.0,81,0.00,,,0.00,weatherlink.com 1.10,2013-02-16 12:54:00,
2013-02-16 08:09:00,20.7,16.0,29.96,WNW,297,0.0,3.0,82,0.00,,,0.00,weatherlink.com 1.10,2013-02-16 13:09:00,
2013-02-16 08:24:00,20.9,16.0,29.96,NW,320,1.0,4.0,82,0.00,,,0.00,weatherlink.com 1.10,2013-02-16 13:24:00,
2013-02-16 08:39:00,20.7,17.0,29.96,NNE,31,0.0,4.0,84,0.00,,,0.00,weatherlink.com 1.10,2013-02-16 13:39:00,
2013-02-16 08:55:00,20.6,16.0,29.97,WNW,301,0.0,5.0,83,0.00,,,0.00,weatherlink.com 1.10,2013-02-16 13:55:00,
2013-02-16 09:10:00,20.9,16.0,29.97,WNW,285,2.0,2.0,80,0.00,,,0.00,weatherlink.com 1.10,2013-02-16 14:10:00,
2013-02-16 09:25:00,21.2,16.0,29.97,NW,314,1.0,3.0,81,0.00,,,0.00,weatherlink.com 1.10,2013-02-16 14:25:00,
2013-02-16 09:40:00,21.1,16.0,29.96,WSW,257,2.0,5.0,79,0.00,,,0.00,weatherlink.com 1.10,2013-02-16 14:40:00,
2013-02-16 09:55:00,21.1,15.0,29.96,NW,308,1.0,5.0,78,0.00,,,0.00,weatherlink.com 1.10,2013-02-16 14:55:00,
2013-02-16 10:10:00,20.8,15.0,29.96,NW,307,2.0,5.0,77,0.00,,,0.00,weatherlink.com 1.10,2013-02-16 15:10:00,
2013-02-16 10:25:00,21.5,15.0,29.96,West,271,3.0,5.0,76,0.00,,,0.00,weatherlink.com 1.10,2013-02-16 15:25:00,
2013-02-16 10:40:00,21.3,15.0,29.96,WNW,288,1.0,4.0,75,0.00,,,0.00,weatherlink.com 1.10,2013-02-16 15:40:00,
2013-02-16 10:55:00,21.3,14.0,29.96,West,281,1.0,6.0,74,0.00,,,0.00,weatherlink.com 1.10,2013-02-16 15:55:00,
2013-02-16 11:10:00,21.8,14.0,29.96,NNW,330,1.0,4.0,73,0.00,,,0.00,weatherlink.com 1.10,2013-02-16 16:10:00,
2013-02-16 11:25:00,22.0,15.0,29.96,NW,305,1.0,3.0,74,0.00,,,0.00,weatherlink.com 1.10,2013-02-16 16:25:00,
2013-02-16 11:40:00,22.0,15.0,29.95,NNW,347,3.0,4.0,73,0.00,,,0.00,weatherlink.com 1.10,2013-02-16 16:40:00,
2013-02-16 11:55:00,22.1,14.0,29.95,West,277,0.0,5.0,70,0.00,,,0.00,weatherlink.com 1.10,2013-02-16 16:55:00,
2013-02-16 12:10:00,23.3,15.0,29.94,WNW,302,2.0,6.0,69,0.00,,,0.00,weatherlink.com 1.10,2013-02-16 17:10:00,
2013-02-16 12:25:00,22.8,13.0,29.94,WNW,294,3.0,7.0,66,0.00,,,0.00,weatherlink.com 1.10,2013-02-16 17:25:00,
2013-02-16 12:40:00,22.0,13.0,29.94,WNW,288,4.0,8.0,68,0.00,,,0.00,weatherlink.com 1.10,2013-02-16 17:40:00,
2013-02-16 12:55:00,21.6,12.0,29.94,WNW,302,4.0,10.0,66,0.00,,,0.00,weatherlink.com 1.10,2013-02-16 17:55:00,
2013-02-16 13:10:00,21.8,12.0,29.93,NNE,32,1.0,10.0,66,0.00,,,0.00,weatherlink.com 1.10,2013-02-16 18:10:00,
2013-02-16 13:25:00,21.7,12.0,29.93,NNE,13,3.0,6.0,65,0.00,,,0.00,weatherlink.com 1.10,2013-02-16 18:25:00,
2013-02-16 13:40:00,22.5,12.0,29.93,NW,323,2.0,11.0,63,0.00,,,0.00,weatherlink.com 1.10,2013-02-16 18:40:00,
2013-02-16 13:55:00,22.5,11.0,29.93,WNW,289,6.0,10.0,61,0.00,,,0.00,weatherlink.com 1.10,2013-02-16 18:55:00,
2013-02-16 14:10:00,22.4,9.0,29.93,NNE,12,3.0,8.0,56,0.00,,,0.00,weatherlink.com 1.10,2013-02-16 19:10:00,
2013-02-16 14:25:00,23.0,9.0,29.93,WNW,302,3.0,5.0,55,0.00,,,0.00,weatherlink.com 1.10,2013-02-16 19:25:00,
2013-02-16 14:40:00,23.3,9.0,29.93,ENE,63,2.0,4.0,55,0.00,,,0.00,weatherlink.com 1.10,2013-02-16 19:40:00,
2013-02-16 14:55:00,22.4,9.0,29.93,NE,49,3.0,7.0,56,0.00,,,0.00,weatherlink.com 1.10,2013-02-16 19:55:00,
2013-02-16 15:10:00,22.5,8.0,29.93,ENE,78,1.0,4.0,55,0.00,,,0.00,weatherlink.com 1.10,2013-02-16 20:10:00,
2013-02-16 15:25:00,22.0,7.0,29.93,NNW,330,2.0,6.0,52,0.00,,,0.00,weatherlink.com 1.10,2013-02-16 20:25:00,
2013-02-16 15:40:00,21.5,6.0,29.93,NE,50,4.0,5.0,52,0.00,,,0.00,weatherlink.com 1.10,2013-02-16 20:40:00,
2013-02-16 15:55:00,21.5,7.0,29.93,WNW,302,2.0,4.0,54,0.00,,,0.00,weatherlink.com 1.10,2013-02-16 20:55:00,
2013-02-16 16:10:00,20.9,6.0,29.94,NW,304,4.0,4.0,53,0.00,,,0.00,weatherlink.com 1.10,2013-02-16 21:10:00,
2013-02-16 16:25:00,20.2,6.0,29.94,ENE,60,2.0,4.0,55,0.00,,,0.00,weatherlink.com 1.10,2013-02-16 21:25:00,
2013-02-16 16:40:00,20.4,6.0,29.93,NNE,31,1.0,4.0,55,0.00,,,0.00,weatherlink.com 1.10,2013-02-16 21:40:00,
2013-02-16 16:55:00,19.4,6.0,29.93,NE,49,2.0,6.0,57,0.00,,,0.00,weatherlink.com 1.10,2013-02-16 21:55:00,
2013-02-16 17:11:00,18.7,6.0,29.94,NE,49,0.0,4.0,59,0.00,,,0.00,weatherlink.com 1.10,2013-02-16 22:11:00,
2013-02-16 17:26:00,18.2,6.0,29.93,WNW,288,1.0,9.0,58,0.00,,,0.00,weatherlink.com 1.10,2013-02-16 22:26:00,
2013-02-16 17:40:00,17.7,5.0,29.94,NNW,330,1.0,5.0,58,0.00,,,0.00,weatherlink.com 1.10,2013-02-16 22:40:00,
2013-02-16 17:55:00,17.3,5.0,29.94,NW,315,1.0,4.0,59,0.00,,,0.00,weatherlink.com 1.10,2013-02-16 22:55:00,
2013-02-16 18:10:00,17.1,6.0,29.95,SE,131,1.0,6.0,61,0.00,,,0.00,weatherlink.com 1.10,2013-02-16 23:10:00,
2013-02-16 18:25:00,16.7,5.0,29.96,East,100,0.0,4.0,61,0.00,,,0.00,weatherlink.com 1.10,2013-02-16 23:25:00,
2013-02-16 18:41:00,16.3,5.0,29.96,NE,56,2.0,3.0,62,0.00,,,0.00,weatherlink.com 1.10,2013-02-16 23:41:00,
2013-02-16 18:56:00,15.9,5.0,29.95,WNW,300,4.0,4.0,61,0.00,,,0.00,weatherlink.com 1.10,2013-02-16 23:56:00,
2013-02-16 19:11:00,15.5,4.0,29.95,East,85,1.0,5.0,61,0.00,,,0.00,weatherlink.com 1.10,2013-02-17 00:11:00,
2013-02-16 19:26:00,15.2,4.0,29.95,North,349,1.0,4.0,61,0.00,,,0.00,weatherlink.com 1.10,2013-02-17 00:26:00,
2013-02-16 19:41:00,15.0,4.0,29.95,NW,309,3.0,5.0,62,0.00,,,0.00,weatherlink.com 1.10,2013-02-17 00:41:00,
2013-02-16 19:56:00,14.8,3.0,29.96,North,360,6.0,9.0,60,0.00,,,0.00,weatherlink.com 1.10,2013-02-17 00:56:00,
2013-02-16 20:11:00,14.7,2.0,29.95,NW,316,1.0,7.0,58,0.00,,,0.00,weatherlink.com 1.10,2013-02-17 01:11:00,
2013-02-16 20:26:00,14.5,2.0,29.94,NE,34,2.0,10.0,57,0.00,,,0.00,weatherlink.com 1.10,2013-02-17 01:26:00,
2013-02-16 20:41:00,14.2,2.0,29.94,NW,319,2.0,7.0,58,0.00,,,0.00,weatherlink.com 1.10,2013-02-17 01:41:00,
2013-02-16 20:56:00,14.0,2.0,29.94,WNW,287,4.0,4.0,59,0.00,,,0.00,weatherlink.com 1.10,2013-02-17 01:56:00,
2013-02-16 21:11:00,14.2,2.0,29.93,NW,316,2.0,7.0,59,0.00,,,0.00,weatherlink.com 1.10,2013-02-17 02:11:00,
2013-02-16 21:26:00,14.1,2.0,29.93,ENE,63,1.0,3.0,60,0.00,,,0.00,weatherlink.com 1.10,2013-02-17 02:26:00,
2013-02-16 21:41:00,13.8,2.0,29.93,NW,304,1.0,6.0,60,0.00,,,0.00,weatherlink.com 1.10,2013-02-17 02:41:00,
2013-02-16 21:56:00,13.5,2.0,29.92,ENE,64,1.0,4.0,61,0.00,,,0.00,weatherlink.com 1.10,2013-02-17 02:56:00,
2013-02-16 22:11:00,13.3,2.0,29.91,NE,53,0.0,6.0,62,0.00,,,0.00,weatherlink.com 1.10,2013-02-17 03:11:00,
2013-02-16 22:26:00,13.2,3.0,29.91,NW,316,0.0,5.0,63,0.00,,,0.00,weatherlink.com 1.10,2013-02-17 03:26:00,
2013-02-16 22:41:00,13.0,3.0,29.91,ENE,60,3.0,6.0,64,0.00,,,0.00,weatherlink.com 1.10,2013-02-17 03:41:00,
2013-02-16 22:56:00,12.6,3.0,29.90,WNW,294,3.0,6.0,64,0.00,,,0.00,weatherlink.com 1.10,2013-02-17 03:56:00,
2013-02-16 23:11:00,12.4,3.0,29.90,WSW,250,1.0,5.0,65,0.00,,,0.00,weatherlink.com 1.10,2013-02-17 04:11:00,
2013-02-16 23:26:00,12.2,2.0,29.89,WNW,292,3.0,6.0,65,0.00,,,0.00,weatherlink.com 1.10,2013-02-17 04:26:00,
2013-02-16 23:42:00,12.0,3.0,29.89,East,79,2.0,4.0,66,0.00,,,0.00,weatherlink.com 1.10,2013-02-17 04:42:00,
2013-02-16 23:56:00,12.0,2.0,29.89,NW,314,4.0,7.0,65,0.00,,,0.00,weatherlink.com 1.10,2013-02-17 04:56:00,